Regional Weather Roundup
Issued by NWS

Home | Current Version | Previous Version | Text Only | Print | Product List | Glossary On
Versions: 1 2 3 4 5 6 7 8 9 10 11 12 13 14 15 16 17 18 19 20 21 22 23 24 25 26 27 28 29 30 31 32 33 34 35 36 37 38 39 40 41 42 43 44 45 46 47 48 49 50
000
ASUS46 KSEW 231910
RWRWA

WASHINGTON REGIONAL WEATHER ROUNDUP
NATIONAL WEATHER SERVICE SEATTLE WA
1200 PM PDT FRI JUN 23 2017

NOTE:"FAIR" INDICATES FEW OR NO CLOUDS BELOW 12,000 FEET WITH NO
SIGNIFICANT WEATHER AND/OR OBSTRUCTIONS TO VISIBILITY.

WAZ507-509-555>559-232000-
SEATTLE, TACOMA, EVERETT, AND VICINITY

CITY           SKY/WX    TMP DP  RH WIND       PRES   REMARKS
EVERETT        SUNNY     68  51  54 N9        30.22F
BOEING FIELD   SUNNY     74  52  46 NW8       30.19F
RENTON         SUNNY     74  54  49 NW13      30.18F
SEATAC AIRPORT SUNNY     74  50  42 N10       30.20F
JBLM-MCCHORD   SUNNY     73  53  50 NE10      30.20F
PUYALLUP       FAIR      73  55  53 W8        30.20S
BREMERTON      SUNNY     73  50  44 NE10G18   30.20F
JBLM-FT LEWIS  SUNNY     73  53  49 N10       30.19F
TACOMA NARROWS SUNNY     69  47  45 N10       30.20F
$$

WAZ001-503-506-510-514-515-232000-
NORTH INTERIOR

CITY           SKY/WX    TMP DP  RH WIND       PRES   REMARKS
BELLINGHAM     SUNNY     73  52  47 VRB7      30.23S
FRIDAY HARBOR  SUNNY     70  50  49 N8        30.25S
EASTSOUND      SUNNY     63  54  72 N8        30.25S
PORT ANGELES   SUNNY     70  48  45 VRB7      30.25F
EDIZ HOOK      FAIR      66  48  53 S5        30.25S
PORT TOWNSEND  FAIR      70  52  52 VRB7      30.23S
NAS WHIDBEY    MOSUNNY   64  49  57 W8        30.27F
ARLINGTON      SUNNY     73  55  53 W9        30.21F
BURLINGTON     SUNNY     68  55  64 W13       30.23S
$$

WAZ020-022-039-040-504-511-512-232000-
SOUTHWEST INTERIOR

CITY           SKY/WX    TMP DP  RH WIND       PRES   REMARKS
SHELTON        SUNNY     78  46  32 NE8       30.17F
OLYMPIA        SUNNY     74  48  39 N10       30.20S
CHEHALIS       FAIR      75  52  43 N9G17     30.18S
KELSO          SUNNY     78  52  40 NW9       30.13F
VANCOUVER      SUNNY     79  53  40 VRB6      30.09F
SCAPPOOSE, OR  SUNNY     81  48  31 N12       30.09F
PORTLAND, OR   SUNNY     78  50  37 W12       30.09F
$$

WAZ021-516-517-232000-
WASHINGTON COAST

CITY           SKY/WX    TMP DP  RH WIND       PRES   REMARKS
FORKS          SUNNY     72  56  57 SW9       30.19F
HOQUIAM        SUNNY     69  56  62 W10       30.18F
ASTORIA, OR    SUNNY     75  50  41 N6        30.12F
$$

WAZ019-023-024-040-567>569-232000-
CASCADE MOUNTAINS AND COLUMBIA GORGE

CITY           SKY/WX    TMP DP  RH WIND       PRES   REMARKS
STAMPEDE PASS  SUNNY     71  41  33 VRB3      30.29S
TROUTDALE, OR  SUNNY     80  49  33 VRB3      30.08F
HOOD RIVER, OR CLEAR     79  43  27 NE6       30.16F
THE DALLES, OR SUNNY     84  40  21 CALM      30.15F
$$

WAZ026-027-041>044-520-521-232000-
EAST SLOPES

CITY           SKY/WX    TMP DP  RH WIND       PRES   REMARKS
OMAK           SUNNY     79  34  19 N9        30.22F
WENATCHEE      SUNNY     77  37  23 VRB3      30.21F
ELLENSBURG     SUNNY     81  38  21 E8        30.22F
YAKIMA         SUNNY     83  35  18 S5        30.20F
SUNNYSIDE ARPT CLEAR     77  46  34 CALM      30.19F
YAKIMA TC      FAIR      81  36  20 N8        30.18F
$$

WAZ028-034-035-232000-
COLUMBIA BASIN

CITY           SKY/WX    TMP DP  RH WIND       PRES   REMARKS
EPHRATA        SUNNY     81  31  16 VRB3      30.20F
MOSES LAKE     SUNNY     81  33  17 VRB6      30.21F
PASCO          SUNNY     81  47  30 N6        30.18F
RICHLAND ARPT  CLEAR     82  38  20 N5        30.18F
HERMISTON, OR  SUNNY     83  40  21 N7G16     30.16F
$$

WAZ036>038-232000-
NORTHEAST WASHINGTON

CITY           SKY/WX    TMP DP  RH WIND       PRES   REMARKS
SPOKANE GEIGER MOSUNNY   74  33  22 N13G18    30.24F
SPOKANE FELTS  SUNNY     74  34  23 VRB3      30.23F
FAIRCHILD AFB  SUNNY     73  32  22 N14       30.23F
COEURDALENE,ID SUNNY     70  40  33 VRB5      30.24F
DEER PARK      SUNNY     72  34  24 VRB3      30.24F
$$

WAZ029>033-232000-
SOUTHEAST WASHINGTON

CITY           SKY/WX    TMP DP  RH WIND       PRES   REMARKS
PULLMAN        SUNNY     74  34  23 NW6       30.26S
LEWISTON, ID   SUNNY     76  41  28 VRB3      30.21F
WALLA WALLA    SUNNY     85  35  16 N13       30.17F
PENDLETON, OR  SUNNY     81  33  17 N12       30.17F
$$



USA.gov is the U.S. government's official web portal to all federal, state and local government web resources and services.